• In Latvia
  • List of Countries
  • For 7 days
  • Water Temperature
  • Satellite Maps
  • Weather Map
  • Weather Widgets
  • user-avatar
    Login

    Hourly Weather Savinskie Gorki

    Today, 24 May, Thursday

    Time Temperature Precipitation Wind Pressure Humidity
    00:00 +12°C° 0 mm 1 mps 752 mmHg 87%
    01:00 +11°C° 0 mm 1 mps 752 mmHg 89%
    02:00 +11°C° 0 mm 1 mps 752 mmHg 91%
    03:00 +11°C° 0 mm 1 mps 752 mmHg 89%
    04:00 +12°C° 0 mm 1 mps 752 mmHg 87%
    05:00 +13°C° 0 mm 1 mps 752 mmHg 85%
    06:00 +15°C° 0 mm 1 mps 753 mmHg 77%
    07:00 +18°C° 0 mm 1 mps 753 mmHg 69%
    08:00 +20°C° 0 mm 1 mps 753 mmHg 62%
    09:00 +20°C° 0 mm 2 mps 753 mmHg 57%
    10:00 +21°C° 0 mm 2 mps 753 mmHg 52%
    11:00 +23°C° 0 mm 2 mps 753 mmHg 48%
    12:00 +23°C° 0 mm 2 mps 752 mmHg 48%
    13:00 +23°C° 0 mm 2 mps 752 mmHg 47%
    14:00 +24°C° 0 mm 3 mps 752 mmHg 47%
    15:00 +22°C° 0 mm 3 mps 752 mmHg 50%
    16:00 +23°C° 0 mm 2 mps 752 mmHg 52%
    17:00 +23°C° 0 mm 2 mps 752 mmHg 54%
    18:00 +20°C° 0 mm 2 mps 752 mmHg 62%
    19:00 +18°C° 0 mm 2 mps 753 mmHg 70%
    20:00 +16°C° 0 mm 2 mps 753 mmHg 79%
    21:00 +15°C° 0 mm 2 mps 753 mmHg 81%
    22:00 +14°C° 0 mm 2 mps 754 mmHg 83%
    23:00 +12°C° 0 mm 3 mps 754 mmHg 85%

    Tomorrow, 25 May, Friday

    Time Temperature Precipitation Wind Pressure Humidity
    00:00 +11°C° 0 mm 3 mps 754 mmHg 82%
    01:00 +11°C° 0 mm 3 mps 755 mmHg 79%
    02:00 +10°C° 0 mm 2 mps 755 mmHg 76%
    03:00 +10°C° 0 mm 2 mps 756 mmHg 73%
    04:00 +10°C° 0 mm 2 mps 756 mmHg 70%
    05:00 +9°C° 0 mm 2 mps 756 mmHg 67%
    06:00 +11°C° 0 mm 3 mps 757 mmHg 60%
    07:00 +13°C° 0 mm 3 mps 757 mmHg 52%
    08:00 +16°C° 0 mm 3 mps 757 mmHg 45%
    09:00 +17°C° 0 mm 3 mps 758 mmHg 43%
    10:00 +18°C° 0 mm 3 mps 758 mmHg 41%
    11:00 +19°C° 0 mm 3 mps 758 mmHg 39%
    12:00 +19°C° 0 mm 3 mps 758 mmHg 39%
    13:00 +20°C° 0 mm 3 mps 758 mmHg 39%
    14:00 +20°C° 0 mm 3 mps 758 mmHg 39%
    15:00 +20°C° 0 mm 3 mps 758 mmHg 41%
    16:00 +20°C° 0 mm 3 mps 758 mmHg 43%
    17:00 +19°C° 0 mm 2 mps 758 mmHg 45%
    18:00 +17°C° 0 mm 2 mps 758 mmHg 52%
    19:00 +15°C° 0 mm 2 mps 758 mmHg 59%
    20:00 +13°C° 0 mm 2 mps 758 mmHg 66%
    21:00 +12°C° 0 mm 1 mps 759 mmHg 67%
    22:00 +12°C° 0 mm 1 mps 759 mmHg 67%
    23:00 +11°C° 0 mm 1 mps 759 mmHg 68%

    Day after tomorrow, 26 May, Saturday

    Time Temperature Precipitation Wind Pressure Humidity
    00:00 +10°C° 0 mm 1 mps 760 mmHg 69%
    01:00 +10°C° 0 mm 1 mps 760 mmHg 70%
    02:00 +9°C° 0 mm 1 mps 760 mmHg 71%
    03:00 +10°C° 0 mm 1 mps 761 mmHg 71%
    04:00 +11°C° 0 mm 1 mps 761 mmHg 71%
    05:00 +11°C° 0 mm 1 mps 761 mmHg 71%
    06:00 +14°C° 0 mm 1 mps 761 mmHg 63%
    07:00 +16°C° 0 mm 1 mps 761 mmHg 56%
    08:00 +19°C° 0 mm 1 mps 761 mmHg 48%
    09:00 +20°C° 0 mm 1 mps 761 mmHg 45%
    10:00 +20°C° 0 mm 2 mps 761 mmHg 41%
    11:00 +23°C° 0 mm 2 mps 761 mmHg 38%
    12:00 +23°C° 0 mm 2 mps 761 mmHg 38%
    13:00 +23°C° 0 mm 2 mps 760 mmHg 38%
    14:00 +24°C° 0 mm 3 mps 760 mmHg 38%
    15:00 +22°C° 0 mm 3 mps 760 mmHg 41%
    16:00 +23°C° 0 mm 2 mps 759 mmHg 44%
    17:00 +23°C° 0 mm 2 mps 759 mmHg 46%
    18:00 +19°C° 0 mm 2 mps 759 mmHg 54%
    19:00 +17°C° 0 mm 2 mps 759 mmHg 62%
    20:00 +15°C° 0 mm 2 mps 758 mmHg 69%
    21:00 +14°C° 0 mm 2 mps 759 mmHg 71%
    22:00 +13°C° 0 mm 2 mps 759 mmHg 73%
    23:00 +13°C° 0 mm 2 mps 759 mmHg 75%

    27 May, Sunday

    Time Temperature Precipitation Wind Pressure Humidity
    00:00 +12°C° 0 mm 2 mps 759 mmHg 77%
    01:00 +12°C° 0 mm 2 mps 759 mmHg 78%
    02:00 +10°C° 0 mm 2 mps 759 mmHg 80%
    03:00 +11°C° 0 mm 3 mps 758 mmHg 79%
    04:00 +11°C° 0 mm 3 mps 758 mmHg 77%
    05:00 +12°C° 0 mm 3 mps 758 mmHg 76%
    06:00 +13°C° 0 mm 3 mps 758 mmHg 71%
    07:00 +16°C° 0 mm 3 mps 758 mmHg 65%
    08:00 +18°C° 0 mm 3 mps 757 mmHg 60%
    09:00 +19°C° 0 mm 3 mps 757 mmHg 56%
    10:00 +21°C° 0 mm 3 mps 757 mmHg 51%
    11:00 +22°C° 0 mm 3 mps 756 mmHg 47%
    12:00 +24°C° 0 mm 3 mps 756 mmHg 46%
    13:00 +24°C° 0 mm 3 mps 755 mmHg 45%
    14:00 +25°C° 0 mm 3 mps 755 mmHg 43%
    15:00 +24°C° 0 mm 3 mps 755 mmHg 48%
    16:00 +24°C° 0 mm 3 mps 754 mmHg 52%
    17:00 +23°C° 0 mm 2 mps 754 mmHg 56%
    18:00 +21°C° 0.1 mm 2 mps 754 mmHg 63%
    19:00 +19°C° 0.1 mm 2 mps 754 mmHg 69%
    20:00 +18°C° 0.1 mm 2 mps 755 mmHg 76%
    21:00 +17°C° 0 mm 2 mps 755 mmHg 78%
    22:00 +14°C° 0 mm 3 mps 755 mmHg 80%
    23:00 +13°C° 0 mm 3 mps 756 mmHg 82%

    28 May, Monday

    Time Temperature Precipitation Wind Pressure Humidity
    00:00 +12°C° 0 mm 3 mps 756 mmHg 78%
    01:00 +11°C° 0 mm 3 mps 757 mmHg 74%
    02:00 +9°C° 0 mm 3 mps 757 mmHg 71%
    03:00 +9°C° 0 mm 3 mps 758 mmHg 68%
    04:00 +9°C° 0 mm 3 mps 758 mmHg 66%
    05:00 +9°C° 0 mm 3 mps 759 mmHg 63%
    06:00 +10°C° 0 mm 3 mps 759 mmHg 56%
    07:00 +12°C° 0 mm 3 mps 760 mmHg 49%
    08:00 +13°C° 0 mm 3 mps 760 mmHg 43%
    09:00 +14°C° 0 mm 3 mps 760 mmHg 40%
    10:00 +16°C° 0 mm 3 mps 760 mmHg 37%
    11:00 +18°C° 0 mm 3 mps 760 mmHg 35%
    12:00 +18°C° 0 mm 3 mps 760 mmHg 34%
    13:00 +19°C° 0 mm 3 mps 760 mmHg 33%
    14:00 +19°C° 0 mm 3 mps 760 mmHg 33%
    15:00 +19°C° 0 mm 2 mps 760 mmHg 35%
    16:00 +19°C° 0 mm 2 mps 759 mmHg 36%
    17:00 +19°C° 0 mm 2 mps 759 mmHg 38%
    18:00 +18°C° 0 mm 1 mps 759 mmHg 45%
    19:00 +15°C° 0 mm 1 mps 759 mmHg 52%
    20:00 +13°C° 0 mm 1 mps 759 mmHg 59%
    21:00 +12°C° 0 mm 1 mps 759 mmHg 60%
    22:00 +11°C° 0 mm 1 mps 759 mmHg 60%
    23:00 +10°C° 0 mm 2 mps 759 mmHg 61%

    29 May, Tuesday

    Time Temperature Precipitation Wind Pressure Humidity
    00:00 +9°C° 0 mm 2 mps 759 mmHg 62%
    01:00 +9°C° 0 mm 2 mps 759 mmHg 63%
    02:00 +9°C° 0 mm 2 mps 759 mmHg 64%
    03:00 +9°C° 0 mm 2 mps 759 mmHg 64%
    04:00 +10°C° 0 mm 2 mps 759 mmHg 63%
    05:00 +11°C° 0 mm 3 mps 759 mmHg 63%
    06:00 +13°C° 0 mm 3 mps 759 mmHg 57%
    07:00 +16°C° 0 mm 3 mps 759 mmHg 52%
    08:00 +19°C° 0 mm 3 mps 759 mmHg 46%
    09:00 +20°C° 0 mm 3 mps 758 mmHg 43%
    10:00 +21°C° 0 mm 3 mps 758 mmHg 40%
    11:00 +24°C° 0 mm 3 mps 758 mmHg 37%
    12:00 +24°C° 0 mm 3 mps 758 mmHg 37%
    13:00 +25°C° 0 mm 3 mps 757 mmHg 37%
    14:00 +26°C° 0 mm 3 mps 757 mmHg 36%
    15:00 +25°C° 0 mm 3 mps 756 mmHg 39%
    16:00 +25°C° 0 mm 2 mps 756 mmHg 42%
    17:00 +25°C° 0 mm 2 mps 755 mmHg 44%
    18:00 +23°C° 0 mm 2 mps 755 mmHg 52%
    19:00 +20°C° 0 mm 2 mps 755 mmHg 59%
    20:00 +17°C° 0 mm 2 mps 754 mmHg 67%
    21:00 +16°C° 0 mm 2 mps 754 mmHg 68%
    22:00 +15°C° 0 mm 2 mps 754 mmHg 70%
    23:00 +14°C° 0 mm 2 mps 754 mmHg 71%
    Show more